Time,TemperatureF,DewpointF,PressureIn,WindDirection,WindDirectionDegrees,WindSpeedMPH,WindSpeedGustMPH,Humidity,HourlyPrecipIn,Conditions,Clouds,dailyrainin,SoftwareType,DateUTC
2013-02-10 00:00:00,9.5,-5.0,30.47,SSE,147,0.0,4.0,51,0.00,,,0.00,Wunderground v.1.15,2013-02-10 05:00:00,
2013-02-10 00:05:00,9.0,-5.1,30.47,SSE,147,0.0,4.0,52,0.00,,,0.00,Wunderground v.1.15,2013-02-10 05:05:00,
2013-02-10 00:10:00,8.6,-5.1,30.48,SSE,147,0.0,4.0,53,0.00,,,0.00,Wunderground v.1.15,2013-02-10 05:10:00,
2013-02-10 00:15:00,8.8,-4.9,30.48,SSE,147,0.0,4.0,53,0.00,,,0.00,Wunderground v.1.15,2013-02-10 05:15:00,
2013-02-10 00:20:00,9.0,-4.7,30.48,SSE,147,0.0,4.0,53,0.00,,,0.00,Wunderground v.1.15,2013-02-10 05:20:00,
2013-02-10 00:25:00,8.8,-4.9,30.48,SSE,147,0.0,4.0,53,0.00,,,0.00,Wunderground v.1.15,2013-02-10 05:25:00,
2013-02-10 00:30:00,7.2,-6.0,30.48,SSE,147,0.0,4.0,54,0.00,,,0.00,Wunderground v.1.15,2013-02-10 05:30:00,
2013-02-10 00:35:00,5.6,-6.4,30.48,SSE,147,0.0,4.0,57,0.00,,,0.00,Wunderground v.1.15,2013-02-10 05:35:00,
2013-02-10 00:40:00,5.2,-6.0,30.49,SSE,147,0.0,4.0,59,0.00,,,0.00,Wunderground v.1.15,2013-02-10 05:40:00,
2013-02-10 00:45:00,5.2,-5.3,30.49,ESE,109,0.0,4.0,61,0.00,,,0.00,Wunderground v.1.15,2013-02-10 05:45:00,
2013-02-10 00:50:00,5.0,-5.5,30.49,ESE,109,0.0,4.0,61,0.00,,,0.00,Wunderground v.1.15,2013-02-10 05:50:00,
2013-02-10 00:55:00,5.2,-5.3,30.50,ESE,109,0.0,4.0,61,0.00,,,0.00,Wunderground v.1.15,2013-02-10 05:55:00,
2013-02-10 01:00:00,5.2,-5.3,30.50,ESE,109,0.0,4.0,61,0.00,,,0.00,Wunderground v.1.15,2013-02-10 06:00:00,
2013-02-10 01:05:00,5.0,-5.5,30.50,ESE,109,0.0,4.0,61,0.00,,,0.00,Wunderground v.1.15,2013-02-10 06:05:00,
2013-02-10 01:10:00,4.8,-5.7,30.51,ESE,109,0.0,4.0,61,0.00,,,0.00,Wunderground v.1.15,2013-02-10 06:10:00,
2013-02-10 01:15:00,4.5,-6.0,30.51,ESE,109,0.0,4.0,61,0.00,,,0.00,Wunderground v.1.15,2013-02-10 06:15:00,
2013-02-10 01:20:00,4.1,-6.0,30.51,ESE,109,0.0,4.0,62,0.00,,,0.00,Wunderground v.1.15,2013-02-10 06:20:00,
2013-02-10 01:25:00,4.1,-6.0,30.51,ESE,109,0.0,4.0,62,0.00,,,0.00,Wunderground v.1.15,2013-02-10 06:25:00,
2013-02-10 01:30:00,4.3,-5.9,30.51,ESE,109,0.0,4.0,62,0.00,,,0.00,Wunderground v.1.15,2013-02-10 06:30:00,
2013-02-10 01:35:00,3.9,-6.6,30.51,ESE,109,0.0,4.0,61,0.00,,,0.00,Wunderground v.1.15,2013-02-10 06:35:00,
2013-02-10 01:40:00,3.9,-6.2,30.52,ESE,109,0.0,4.0,62,0.00,,,0.00,Wunderground v.1.15,2013-02-10 06:40:00,
2013-02-10 01:45:00,3.9,-5.9,30.52,ESE,109,0.0,4.0,63,0.00,,,0.00,Wunderground v.1.15,2013-02-10 06:45:00,
2013-02-10 01:50:00,4.1,-5.7,30.52,ESE,109,0.0,4.0,63,0.00,,,0.00,Wunderground v.1.15,2013-02-10 06:50:00,
2013-02-10 01:55:00,4.3,-5.5,30.52,ESE,109,0.0,4.0,63,0.00,,,0.00,Wunderground v.1.15,2013-02-10 06:55:00,
2013-02-10 02:00:00,4.5,-5.3,30.52,ESE,109,0.0,4.0,63,0.00,,,0.00,Wunderground v.1.15,2013-02-10 07:00:00,
2013-02-10 02:05:00,4.3,-5.5,30.52,ESE,109,0.0,4.0,63,0.00,,,0.00,Wunderground v.1.15,2013-02-10 07:05:00,
2013-02-10 02:10:00,4.3,-5.2,30.52,ESE,109,0.0,4.0,64,0.00,,,0.00,Wunderground v.1.15,2013-02-10 07:10:00,
2013-02-10 02:15:00,4.3,-5.2,30.52,ESE,109,0.0,4.0,64,0.00,,,0.00,Wunderground v.1.15,2013-02-10 07:15:00,
2013-02-10 02:20:00,4.3,-5.2,30.52,ESE,109,0.0,4.0,64,0.00,,,0.00,Wunderground v.1.15,2013-02-10 07:20:00,
2013-02-10 02:25:00,4.1,-5.1,30.52,ESE,109,0.0,4.0,65,0.00,,,0.00,Wunderground v.1.15,2013-02-10 07:25:00,
2013-02-10 02:30:00,3.9,-5.6,30.52,ESE,109,0.0,4.0,64,0.00,,,0.00,Wunderground v.1.15,2013-02-10 07:30:00,
2013-02-10 02:35:00,3.9,-5.3,30.52,ESE,109,0.0,4.0,65,0.00,,,0.00,Wunderground v.1.15,2013-02-10 07:35:00,
2013-02-10 02:40:00,3.7,-5.8,30.52,ESE,109,0.0,4.0,64,0.00,,,0.00,Wunderground v.1.15,2013-02-10 07:40:00,
2013-02-10 02:45:00,3.5,-6.0,30.52,ESE,109,0.0,4.0,64,0.00,,,0.00,Wunderground v.1.15,2013-02-10 07:45:00,
2013-02-10 02:50:00,3.2,-5.9,30.52,ESE,109,0.0,4.0,65,0.00,,,0.00,Wunderground v.1.15,2013-02-10 07:50:00,
2013-02-10 02:55:00,3.0,-6.1,30.53,ESE,109,0.0,4.0,65,0.00,,,0.00,Wunderground v.1.15,2013-02-10 07:55:00,
2013-02-10 03:00:00,2.8,-6.3,30.53,ESE,109,0.0,4.0,65,0.00,,,0.00,Wunderground v.1.15,2013-02-10 08:00:00,
2013-02-10 03:05:00,2.6,-6.2,30.53,ESE,109,0.0,4.0,66,0.00,,,0.00,Wunderground v.1.15,2013-02-10 08:05:00,
2013-02-10 03:10:00,2.2,-6.9,30.53,ESE,109,0.0,4.0,65,0.00,,,0.00,Wunderground v.1.15,2013-02-10 08:10:00,
2013-02-10 03:15:00,2.0,-6.8,30.53,ESE,109,0.0,4.0,66,0.00,,,0.00,Wunderground v.1.15,2013-02-10 08:15:00,
2013-02-10 03:20:00,1.8,-7.0,30.53,ESE,109,0.0,4.0,66,0.00,,,0.00,Wunderground v.1.15,2013-02-10 08:20:00,
2013-02-10 03:25:00,1.1,-7.6,30.53,ESE,109,0.0,4.0,66,0.00,,,0.00,Wunderground v.1.15,2013-02-10 08:25:00,
2013-02-10 03:35:00,0.1,-8.0,30.53,ESE,109,0.0,4.0,68,0.00,,,0.00,Wunderground v.1.15,2013-02-10 08:35:00,
2013-02-10 03:40:00,0.1,-8.3,30.54,ESE,109,0.0,4.0,67,0.00,,,0.00,Wunderground v.1.15,2013-02-10 08:40:00,
2013-02-10 03:45:00,0.1,-8.0,30.54,ESE,109,0.0,4.0,68,0.00,,,0.00,Wunderground v.1.15,2013-02-10 08:45:00,
2013-02-10 03:50:00,0.0,-8.1,30.54,ESE,109,0.0,4.0,68,0.00,,,0.00,Wunderground v.1.15,2013-02-10 08:50:00,
2013-02-10 04:00:00,-1.6,-9.6,30.55,ESE,109,0.0,4.0,68,0.00,,,0.00,Wunderground v.1.15,2013-02-10 09:00:00,
2013-02-10 04:05:00,-2.0,-9.7,30.55,ESE,109,0.0,4.0,69,0.00,,,0.00,Wunderground v.1.15,2013-02-10 09:05:00,
2013-02-10 04:10:00,-1.8,-9.2,30.56,ESE,109,0.0,4.0,70,0.00,,,0.00,Wunderground v.1.15,2013-02-10 09:10:00,
2013-02-10 04:15:00,-1.4,-8.2,30.56,ESE,109,0.0,4.0,72,0.00,,,0.00,Wunderground v.1.15,2013-02-10 09:15:00,
2013-02-10 04:20:00,-2.2,-9.6,30.56,ESE,109,0.0,4.0,70,0.00,,,0.00,Wunderground v.1.15,2013-02-10 09:20:00,
2013-02-10 04:25:00,-2.8,-9.9,30.57,ESE,109,0.0,4.0,71,0.00,,,0.00,Wunderground v.1.15,2013-02-10 09:25:00,
2013-02-10 04:30:00,-2.8,-9.9,30.57,ESE,109,0.0,4.0,71,0.00,,,0.00,Wunderground v.1.15,2013-02-10 09:30:00,
2013-02-10 04:35:00,-2.8,-9.6,30.57,ESE,109,0.0,4.0,72,0.00,,,0.00,Wunderground v.1.15,2013-02-10 09:35:00,
2013-02-10 04:40:00,-2.6,-9.4,30.57,ESE,109,0.0,4.0,72,0.00,,,0.00,Wunderground v.1.15,2013-02-10 09:40:00,
2013-02-10 04:45:00,-2.8,-9.6,30.57,ESE,109,0.0,4.0,72,0.00,,,0.00,Wunderground v.1.15,2013-02-10 09:45:00,
2013-02-10 04:50:00,-3.1,-9.6,30.57,ESE,109,0.0,4.0,73,0.00,,,0.00,Wunderground v.1.15,2013-02-10 09:50:00,
2013-02-10 04:55:00,-3.3,-9.8,30.58,ESE,109,0.0,4.0,73,0.00,,,0.00,Wunderground v.1.15,2013-02-10 09:55:00,
2013-02-10 05:00:00,-3.5,-10.0,30.58,ESE,109,0.0,4.0,73,0.00,,,0.00,Wunderground v.1.15,2013-02-10 10:00:00,
2013-02-10 05:05:00,-3.5,-10.0,30.58,ESE,109,0.0,4.0,73,0.00,,,0.00,Wunderground v.1.15,2013-02-10 10:05:00,
2013-02-10 05:15:00,-3.7,-9.9,30.59,ESE,109,0.0,4.0,74,0.00,,,0.00,Wunderground v.1.15,2013-02-10 10:15:00,
2013-02-10 05:20:00,-3.9,-10.1,30.59,ESE,109,0.0,4.0,74,0.00,,,0.00,Wunderground v.1.15,2013-02-10 10:20:00,
2013-02-10 05:25:00,-4.1,-10.3,30.59,ESE,109,0.0,4.0,74,0.00,,,0.00,Wunderground v.1.15,2013-02-10 10:25:00,
2013-02-10 05:30:00,-4.1,-10.3,30.59,ESE,109,0.0,4.0,74,0.00,,,0.00,Wunderground v.1.15,2013-02-10 10:30:00,
2013-02-10 05:35:00,-4.3,-10.5,30.59,ESE,109,0.0,4.0,74,0.00,,,0.00,Wunderground v.1.15,2013-02-10 10:35:00,
2013-02-10 05:45:00,-4.6,-10.8,30.59,ESE,109,0.0,4.0,74,0.00,,,0.00,Wunderground v.1.15,2013-02-10 10:45:00,
2013-02-10 05:50:00,-4.8,-11.0,30.59,ESE,109,0.0,4.0,74,0.00,,,0.00,Wunderground v.1.15,2013-02-10 10:50:00,
2013-02-10 05:55:00,-5.0,-11.2,30.60,ESE,109,0.0,4.0,74,0.00,,,0.00,Wunderground v.1.15,2013-02-10 10:55:00,
2013-02-10 06:00:00,-5.2,-11.4,30.60,ESE,109,0.0,4.0,74,0.00,,,0.00,Wunderground v.1.15,2013-02-10 11:00:00,
2013-02-10 06:05:00,-5.2,-11.1,30.60,ESE,109,0.0,4.0,75,0.00,,,0.00,Wunderground v.1.15,2013-02-10 11:05:00,
2013-02-10 06:10:00,-5.2,-11.1,30.62,ESE,109,0.0,4.0,75,0.00,,,0.00,Wunderground v.1.15,2013-02-10 11:10:00,
2013-02-10 06:15:00,-5.0,-10.9,30.62,ESE,109,0.0,4.0,75,0.00,,,0.00,Wunderground v.1.15,2013-02-10 11:15:00,
2013-02-10 06:20:00,-5.2,-11.1,30.62,ESE,109,0.0,4.0,75,0.00,,,0.00,Wunderground v.1.15,2013-02-10 11:20:00,
2013-02-10 06:25:00,-5.4,-11.3,30.61,ESE,109,0.0,4.0,75,0.00,,,0.00,Wunderground v.1.15,2013-02-10 11:25:00,
2013-02-10 06:30:00,-5.4,-11.3,30.61,ESE,109,0.0,4.0,75,0.00,,,0.00,Wunderground v.1.15,2013-02-10 11:30:00,
2013-02-10 06:35:00,-5.6,-11.5,30.61,ESE,109,0.0,4.0,75,0.00,,,0.00,Wunderground v.1.15,2013-02-10 11:35:00,
2013-02-10 06:40:00,-5.6,-11.5,30.63,ESE,109,0.0,4.0,75,0.00,,,0.00,Wunderground v.1.15,2013-02-10 11:40:00,
2013-02-10 06:45:00,-5.9,-11.8,30.63,ESE,109,0.0,4.0,75,0.00,,,0.00,Wunderground v.1.15,2013-02-10 11:45:00,
2013-02-10 06:55:00,-6.3,-12.2,30.64,ESE,109,0.0,4.0,75,0.00,,,0.00,Wunderground v.1.15,2013-02-10 11:55:00,
2013-02-10 07:00:00,-6.5,-12.4,30.64,ESE,109,0.0,4.0,75,0.00,,,0.00,Wunderground v.1.15,2013-02-10 12:00:00,
2013-02-10 07:05:00,-6.5,-12.4,30.64,ESE,109,0.0,4.0,75,0.00,,,0.00,Wunderground v.1.15,2013-02-10 12:05:00,
2013-02-10 07:10:00,-6.5,-12.4,30.66,ESE,109,0.0,4.0,75,0.00,,,0.00,Wunderground v.1.15,2013-02-10 12:10:00,
2013-02-10 07:15:00,-6.5,-12.4,30.66,ESE,109,0.0,4.0,75,0.00,,,0.00,Wunderground v.1.15,2013-02-10 12:15:00,
2013-02-10 07:20:00,-6.5,-12.4,30.66,ESE,109,0.0,4.0,75,0.00,,,0.00,Wunderground v.1.15,2013-02-10 12:20:00,
2013-02-10 07:25:00,-6.5,-12.4,30.67,ESE,109,0.0,4.0,75,0.00,,,0.00,Wunderground v.1.15,2013-02-10 12:25:00,
2013-02-10 07:30:00,-6.5,-12.4,30.67,ESE,109,0.0,4.0,75,0.00,,,0.00,Wunderground v.1.15,2013-02-10 12:30:00,
2013-02-10 07:35:00,-6.5,-12.4,30.67,ESE,109,0.0,4.0,75,0.00,,,0.00,Wunderground v.1.15,2013-02-10 12:35:00,
2013-02-10 07:40:00,-6.5,-12.4,30.68,ESE,109,0.0,4.0,75,0.00,,,0.00,Wunderground v.1.15,2013-02-10 12:40:00,
2013-02-10 07:45:00,-6.5,-12.4,30.68,ESE,109,0.0,4.0,75,0.00,,,0.00,Wunderground v.1.15,2013-02-10 12:45:00,
2013-02-10 07:50:00,-6.3,-12.2,30.68,ESE,109,0.0,4.0,75,0.00,,,0.00,Wunderground v.1.15,2013-02-10 12:50:00,
2013-02-10 07:55:00,-6.3,-11.9,30.68,ESE,109,0.0,4.0,76,0.00,,,0.00,Wunderground v.1.15,2013-02-10 12:55:00,
2013-02-10 08:00:00,-5.9,-11.5,30.68,ESE,109,0.0,4.0,76,0.00,,,0.00,Wunderground v.1.15,2013-02-10 13:00:00,
2013-02-10 08:05:00,-5.4,-10.8,30.68,ESE,109,0.0,4.0,77,0.00,,,0.00,Wunderground v.1.15,2013-02-10 13:05:00,
2013-02-10 08:10:00,-4.8,-10.2,30.69,ESE,109,0.0,4.0,77,0.00,,,0.00,Wunderground v.1.15,2013-02-10 13:10:00,
2013-02-10 08:15:00,-4.3,-9.7,30.69,ESE,109,0.0,4.0,77,0.00,,,0.00,Wunderground v.1.15,2013-02-10 13:15:00,
2013-02-10 08:20:00,-3.3,-8.4,30.69,ESE,109,0.0,4.0,78,0.00,,,0.00,Wunderground v.1.15,2013-02-10 13:20:00,
2013-02-10 08:25:00,-2.2,-7.4,30.69,ESE,109,0.0,4.0,78,0.00,,,0.00,Wunderground v.1.15,2013-02-10 13:25:00,
2013-02-10 08:30:00,-0.8,-5.7,30.69,ESE,109,0.0,4.0,79,0.00,,,0.00,Wunderground v.1.15,2013-02-10 13:30:00,
2013-02-10 08:35:00,0.5,-4.5,30.69,ESE,109,0.0,4.0,79,0.00,,,0.00,Wunderground v.1.15,2013-02-10 13:35:00,
2013-02-10 08:40:00,2.4,-2.6,30.69,ESE,109,0.0,4.0,79,0.00,,,0.00,Wunderground v.1.15,2013-02-10 13:40:00,
2013-02-10 08:45:00,3.4,-2.2,30.69,ESE,109,0.0,4.0,77,0.00,,,0.00,Wunderground v.1.15,2013-02-10 13:45:00,
2013-02-10 08:50:00,4.3,-1.3,30.69,ESE,109,0.0,4.0,77,0.00,,,0.00,Wunderground v.1.15,2013-02-10 13:50:00,
2013-02-10 08:55:00,5.4,-1.1,30.69,ESE,109,0.0,4.0,74,0.00,,,0.00,Wunderground v.1.15,2013-02-10 13:55:00,
2013-02-10 09:00:00,6.5,-0.3,30.69,ESE,109,0.0,4.0,73,0.00,,,0.00,Wunderground v.1.15,2013-02-10 14:00:00,
2013-02-10 09:05:00,6.5,-1.2,30.69,ESE,109,0.0,4.0,70,0.00,,,0.00,Wunderground v.1.15,2013-02-10 14:05:00,
2013-02-10 09:10:00,7.2,-1.2,30.68,ESE,109,0.0,4.0,68,0.00,,,0.00,Wunderground v.1.15,2013-02-10 14:10:00,
2013-02-10 09:15:00,8.4,-0.6,30.68,ESE,109,0.0,4.0,66,0.00,,,0.00,Wunderground v.1.15,2013-02-10 14:15:00,
2013-02-10 09:20:00,9.7,0.0,30.68,ESE,109,0.0,4.0,64,0.00,,,0.00,Wunderground v.1.15,2013-02-10 14:20:00,
2013-02-10 09:25:00,10.4,-0.4,30.67,ESE,109,0.0,4.0,61,0.00,,,0.00,Wunderground v.1.15,2013-02-10 14:25:00,
2013-02-10 09:30:00,9.9,-1.6,30.67,ESE,109,0.0,4.0,59,0.00,,,0.00,Wunderground v.1.15,2013-02-10 14:30:00,
2013-02-10 09:35:00,10.0,-1.9,30.67,ESE,109,0.0,4.0,58,0.00,,,0.00,Wunderground v.1.15,2013-02-10 14:35:00,
2013-02-10 09:40:00,10.5,-1.4,30.67,ESE,109,0.0,4.0,58,0.00,,,0.00,Wunderground v.1.15,2013-02-10 14:40:00,
2013-02-10 09:45:00,10.9,-1.4,30.67,ESE,109,0.0,4.0,57,0.00,,,0.00,Wunderground v.1.15,2013-02-10 14:45:00,
2013-02-10 09:50:00,11.7,-1.0,30.67,ESE,109,0.0,4.0,56,0.00,,,0.00,Wunderground v.1.15,2013-02-10 14:50:00,
2013-02-10 09:55:00,11.7,-1.0,30.67,ESE,109,0.0,4.0,56,0.00,,,0.00,Wunderground v.1.15,2013-02-10 14:55:00,
2013-02-10 10:00:00,12.6,-0.9,30.67,ESE,109,0.0,4.0,54,0.00,,,0.00,Wunderground v.1.15,2013-02-10 15:00:00,
2013-02-10 10:05:00,13.5,-0.5,30.67,ESE,109,0.0,4.0,53,0.00,,,0.00,Wunderground v.1.15,2013-02-10 15:05:00,
2013-02-10 10:10:00,14.1,-0.7,30.65,ESE,109,0.0,4.0,51,0.00,,,0.00,Wunderground v.1.15,2013-02-10 15:10:00,
2013-02-10 10:15:00,14.6,-0.3,30.65,ESE,109,0.0,4.0,51,0.00,,,0.00,Wunderground v.1.15,2013-02-10 15:15:00,
2013-02-10 10:20:00,14.8,-0.1,30.65,ESE,109,0.0,4.0,51,0.00,,,0.00,Wunderground v.1.15,2013-02-10 15:20:00,
2013-02-10 10:25:00,14.3,-1.0,30.64,WSW,250,1.0,4.0,50,0.00,,,0.00,Wunderground v.1.15,2013-02-10 15:25:00,
2013-02-10 10:30:00,16.1,1.5,30.64,WSW,250,1.0,1.0,52,0.00,,,0.00,Wunderground v.1.15,2013-02-10 15:30:00,
2013-02-10 10:35:00,17.8,1.4,30.64,WSW,250,0.0,4.0,48,0.00,,,0.00,Wunderground v.1.15,2013-02-10 15:35:00,
2013-02-10 10:45:00,17.2,-1.0,30.64,WSW,250,0.0,4.0,44,0.00,,,0.00,Wunderground v.1.15,2013-02-10 15:45:00,
2013-02-10 10:50:00,18.4,0.6,30.64,WSW,250,0.0,4.0,45,0.00,,,0.00,Wunderground v.1.15,2013-02-10 15:50:00,
2013-02-10 10:55:00,18.3,0.0,30.64,WSW,250,0.0,4.0,44,0.00,,,0.01,Wunderground v.1.15,2013-02-10 15:55:00,
2013-02-10 11:00:00,17.8,-0.5,30.64,WSW,250,0.0,4.0,44,0.00,,,0.01,Wunderground v.1.15,2013-02-10 16:00:00,
2013-02-10 11:05:00,17.7,-0.6,30.64,WSW,250,0.0,4.0,44,0.00,,,0.01,Wunderground v.1.15,2013-02-10 16:05:00,
2013-02-10 11:10:00,18.3,-0.5,30.64,WSW,250,0.0,4.0,43,0.00,,,0.01,Wunderground v.1.15,2013-02-10 16:10:00,
2013-02-10 11:15:00,20.3,1.3,30.64,WSW,250,0.0,4.0,43,0.00,,,0.01,Wunderground v.1.15,2013-02-10 16:15:00,
2013-02-10 11:20:00,20.3,0.3,30.64,WSW,250,0.0,4.0,41,0.00,,,0.01,Wunderground v.1.15,2013-02-10 16:20:00,
2013-02-10 11:25:00,21.4,0.8,30.63,WSW,250,0.0,4.0,40,0.00,,,0.01,Wunderground v.1.15,2013-02-10 16:25:00,
2013-02-10 11:35:00,20.5,-1.1,30.63,ESE,117,0.0,4.0,38,0.00,,,0.01,Wunderground v.1.15,2013-02-10 16:35:00,
2013-02-10 11:40:00,21.1,-0.6,30.61,ESE,117,0.0,4.0,38,0.00,,,0.01,Wunderground v.1.15,2013-02-10 16:40:00,
2013-02-10 11:45:00,21.6,-1.3,30.61,ESE,117,0.0,4.0,36,0.00,,,0.01,Wunderground v.1.15,2013-02-10 16:45:00,
2013-02-10 11:50:00,22.2,1.5,30.61,ESE,117,0.0,4.0,40,0.00,,,0.01,Wunderground v.1.15,2013-02-10 16:50:00,
2013-02-10 11:55:00,23.8,1.3,30.59,ESE,117,0.0,4.0,37,0.00,,,0.01,Wunderground v.1.15,2013-02-10 16:55:00,
2013-02-10 12:00:00,25.6,2.3,30.59,ESE,117,0.0,4.0,36,0.00,,,0.01,Wunderground v.1.15,2013-02-10 17:00:00,
2013-02-10 12:05:00,24.8,-0.9,30.59,ESE,117,0.0,4.0,32,0.00,,,0.01,Wunderground v.1.15,2013-02-10 17:05:00,
2013-02-10 12:10:00,24.1,-0.3,30.59,ESE,117,0.0,4.0,34,0.00,,,0.01,Wunderground v.1.15,2013-02-10 17:10:00,
2013-02-10 12:15:00,24.5,-1.2,30.59,ESE,117,0.0,4.0,32,0.00,,,0.01,Wunderground v.1.15,2013-02-10 17:15:00,
2013-02-10 12:20:00,24.5,-1.2,30.59,ESE,117,0.0,4.0,32,0.00,,,0.02,Wunderground v.1.15,2013-02-10 17:20:00,
2013-02-10 12:25:00,24.7,-1.7,30.57,ESE,114,0.0,4.0,31,0.00,,,0.02,Wunderground v.1.15,2013-02-10 17:25:00,
2013-02-10 12:30:00,26.7,3.3,30.57,ESE,114,0.0,4.0,36,0.06,,,0.03,Wunderground v.1.15,2013-02-10 17:30:00,
2013-02-10 12:35:00,26.6,-2.2,30.57,ESE,114,0.0,4.0,28,0.08,,,0.04,Wunderground v.1.15,2013-02-10 17:35:00,
2013-02-10 12:40:00,26.1,0.2,30.56,WSW,237,0.0,4.0,32,0.08,,,0.04,Wunderground v.1.15,2013-02-10 17:40:00,
2013-02-10 12:45:00,25.8,-0.7,30.56,WSW,237,0.0,4.0,31,0.06,,,0.04,Wunderground v.1.15,2013-02-10 17:45:00,
2013-02-10 12:50:00,27.5,2.1,30.56,WSW,237,0.0,4.0,33,0.04,,,0.05,Wunderground v.1.15,2013-02-10 17:50:00,
2013-02-10 12:55:00,28.2,-0.8,30.54,WSW,237,0.0,4.0,28,0.04,,,0.05,Wunderground v.1.15,2013-02-10 17:55:00,
2013-02-10 13:00:00,27.6,-2.9,30.54,WSW,237,0.0,4.0,26,0.06,,,0.05,Wunderground v.1.15,2013-02-10 18:00:00,
2013-02-10 13:05:00,28.5,-1.3,30.54,West,274,0.0,4.0,27,0.06,,,0.05,Wunderground v.1.15,2013-02-10 18:05:00,
2013-02-10 13:15:00,29.1,0.0,30.53,West,275,0.0,4.0,28,0.04,,,0.05,Wunderground v.1.15,2013-02-10 18:15:00,
2013-02-10 13:20:00,29.4,-1.3,30.53,WNW,285,0.0,4.0,26,0.04,,,0.06,Wunderground v.1.15,2013-02-10 18:20:00,
2013-02-10 13:25:00,28.8,-2.7,30.52,WNW,284,1.0,4.0,25,0.04,,,0.06,Wunderground v.1.15,2013-02-10 18:25:00,
2013-02-10 13:35:00,30.3,-1.4,30.52,NW,304,1.0,4.0,25,0.05,,,0.07,Wunderground v.1.15,2013-02-10 18:35:00,
2013-02-10 13:40:00,28.7,-1.1,30.50,NW,306,1.0,4.0,27,0.05,,,0.07,Wunderground v.1.15,2013-02-10 18:40:00,
2013-02-10 13:45:00,28.5,-1.3,30.50,NW,306,1.0,4.0,27,0.00,,,0.07,Wunderground v.1.15,2013-02-10 18:45:00,
2013-02-10 13:50:00,29.3,0.2,30.50,NW,306,0.0,4.0,28,0.00,,,0.08,Wunderground v.1.15,2013-02-10 18:50:00,
2013-02-10 13:55:00,31.0,3.1,30.49,NW,306,0.0,4.0,30,0.00,,,0.08,Wunderground v.1.15,2013-02-10 18:55:00,
2013-02-10 14:00:00,32.2,0.3,30.49,NW,306,0.0,4.0,25,0.00,,,0.08,Wunderground v.1.15,2013-02-10 19:00:00,
2013-02-10 14:05:00,31.6,0.6,30.49,NE,47,0.0,4.0,26,0.04,,,0.09,Wunderground v.1.15,2013-02-10 19:05:00,
2013-02-10 14:10:00,32.4,2.9,30.49,NE,47,0.0,4.0,28,0.04,,,0.09,Wunderground v.1.15,2013-02-10 19:10:00,
2013-02-10 14:15:00,33.1,2.7,30.49,NE,38,0.0,4.0,27,0.04,,,0.09,Wunderground v.1.15,2013-02-10 19:15:00,
2013-02-10 14:20:00,34.1,3.5,30.49,NE,37,0.0,4.0,27,0.00,,,0.09,Wunderground v.1.15,2013-02-10 19:20:00,
2013-02-10 14:25:00,34.7,4.1,30.48,NE,38,0.0,4.0,27,0.00,,,0.09,Wunderground v.1.15,2013-02-10 19:25:00,
2013-02-10 14:30:00,35.3,3.8,30.48,NE,34,0.0,4.0,26,0.00,,,0.09,Wunderground v.1.15,2013-02-10 19:30:00,
2013-02-10 14:35:00,35.5,4.8,30.48,NE,34,0.0,4.0,27,0.00,,,0.09,Wunderground v.1.15,2013-02-10 19:35:00,
2013-02-10 14:40:00,36.0,2.6,30.48,NE,34,0.0,4.0,24,0.00,,,0.10,Wunderground v.1.15,2013-02-10 19:40:00,
2013-02-10 14:45:00,33.8,-1.1,30.48,NE,34,0.0,4.0,22,0.00,,,0.10,Wunderground v.1.15,2013-02-10 19:45:00,
2013-02-10 14:50:00,32.2,-1.5,30.48,NE,41,0.0,4.0,23,0.00,,,0.10,Wunderground v.1.15,2013-02-10 19:50:00,
2013-02-10 14:55:00,31.3,-2.3,30.48,NE,41,0.0,4.0,23,0.00,,,0.10,Wunderground v.1.15,2013-02-10 19:55:00,
2013-02-10 15:00:00,30.6,-2.0,30.48,ENE,58,0.0,4.0,24,0.00,,,0.10,Wunderground v.1.15,2013-02-10 20:00:00,
2013-02-10 15:05:00,31.3,1.9,30.48,ENE,58,0.0,4.0,28,0.00,,,0.10,Wunderground v.1.15,2013-02-10 20:05:00,
2013-02-10 15:10:00,32.5,-0.4,30.48,North,353,0.0,4.0,24,0.00,,,0.10,Wunderground v.1.15,2013-02-10 20:10:00,
2013-02-10 15:15:00,32.5,0.5,30.48,North,353,0.0,4.0,25,0.00,,,0.11,Wunderground v.1.15,2013-02-10 20:15:00,
2013-02-10 15:20:00,32.1,-0.7,30.48,North,353,0.0,4.0,24,0.00,,,0.11,Wunderground v.1.15,2013-02-10 20:20:00,
2013-02-10 15:25:00,31.3,-0.5,30.49,North,353,0.0,4.0,25,0.00,,,0.11,Wunderground v.1.15,2013-02-10 20:25:00,
2013-02-10 15:30:00,31.3,1.1,30.49,North,353,0.0,4.0,27,0.00,,,0.11,Wunderground v.1.15,2013-02-10 20:30:00,
2013-02-10 15:35:00,30.4,-0.5,30.49,North,353,0.0,4.0,26,0.00,,,0.12,Wunderground v.1.15,2013-02-10 20:35:00,
2013-02-10 15:40:00,30.7,0.6,30.49,North,353,0.0,4.0,27,0.00,,,0.12,Wunderground v.1.15,2013-02-10 20:40:00,
2013-02-10 15:45:00,31.3,1.1,30.49,North,353,0.0,4.0,27,0.00,,,0.12,Wunderground v.1.15,2013-02-10 20:45:00,
2013-02-10 15:50:00,31.0,-2.5,30.49,North,353,0.0,4.0,23,0.00,,,0.12,Wunderground v.1.15,2013-02-10 20:50:00,
2013-02-10 15:55:00,31.2,-1.5,30.47,East,82,0.0,4.0,24,0.00,,,0.12,Wunderground v.1.15,2013-02-10 20:55:00,
2013-02-10 16:00:00,31.5,-1.2,30.47,South,186,0.0,4.0,24,0.00,,,0.12,Wunderground v.1.15,2013-02-10 21:00:00,
2013-02-10 16:05:00,31.6,0.6,30.47,South,186,0.0,4.0,26,0.00,,,0.12,Wunderground v.1.15,2013-02-10 21:05:00,
2013-02-10 16:10:00,32.4,-0.4,30.47,South,186,0.0,4.0,24,0.00,,,0.12,Wunderground v.1.15,2013-02-10 21:10:00,
2013-02-10 16:15:00,32.9,-0.9,30.47,WSW,239,0.0,4.0,23,0.00,,,0.12,Wunderground v.1.15,2013-02-10 21:15:00,
2013-02-10 16:20:00,33.2,2.0,30.47,WSW,239,0.0,4.0,26,0.00,,,0.12,Wunderground v.1.15,2013-02-10 21:20:00,
2013-02-10 16:25:00,33.5,3.0,30.46,WSW,239,0.0,4.0,27,0.00,,,0.13,Wunderground v.1.15,2013-02-10 21:25:00,
2013-02-10 16:30:00,33.1,1.0,30.46,WSW,239,0.0,4.0,25,0.00,,,0.13,Wunderground v.1.15,2013-02-10 21:30:00,
2013-02-10 16:35:00,33.2,4.3,30.46,WSW,239,0.0,4.0,29,0.00,,,0.13,Wunderground v.1.15,2013-02-10 21:35:00,
2013-02-10 16:40:00,33.7,4.8,30.46,WSW,239,0.0,4.0,29,0.00,,,0.13,Wunderground v.1.15,2013-02-10 21:40:00,
2013-02-10 16:45:00,33.4,3.7,30.46,WSW,239,0.0,4.0,28,0.00,,,0.13,Wunderground v.1.15,2013-02-10 21:45:00,
2013-02-10 16:50:00,32.8,7.5,30.46,WSW,239,0.0,4.0,34,0.00,,,0.13,Wunderground v.1.15,2013-02-10 21:50:00,
2013-02-10 16:55:00,31.9,5.3,30.47,WSW,239,0.0,4.0,32,0.00,,,0.13,Wunderground v.1.15,2013-02-10 21:55:00,
2013-02-10 17:00:00,30.4,5.3,30.47,WSW,239,0.0,4.0,34,0.00,,,0.13,Wunderground v.1.15,2013-02-10 22:00:00,
2013-02-10 17:05:00,28.8,3.9,30.47,WSW,239,0.0,4.0,34,0.00,,,0.13,Wunderground v.1.15,2013-02-10 22:05:00,
2013-02-10 17:10:00,28.1,5.1,30.46,WSW,239,0.0,4.0,37,0.00,,,0.13,Wunderground v.1.15,2013-02-10 22:10:00,
2013-02-10 17:15:00,27.5,4.0,30.46,WSW,239,0.0,4.0,36,0.00,,,0.13,Wunderground v.1.15,2013-02-10 22:15:00,
2013-02-10 17:20:00,26.9,3.5,30.46,WSW,239,0.0,4.0,36,0.00,,,0.13,Wunderground v.1.15,2013-02-10 22:20:00,
2013-02-10 17:25:00,26.1,3.9,30.46,WSW,239,0.0,4.0,38,0.00,,,0.13,Wunderground v.1.15,2013-02-10 22:25:00,
2013-02-10 17:30:00,25.7,5.2,30.46,WSW,239,0.0,4.0,41,0.00,,,0.13,Wunderground v.1.15,2013-02-10 22:30:00,
2013-02-10 17:35:00,25.1,4.1,30.46,WSW,239,0.0,4.0,40,0.00,,,0.13,Wunderground v.1.15,2013-02-10 22:35:00,
2013-02-10 17:40:00,24.5,3.6,30.47,WSW,239,0.0,4.0,40,0.00,,,0.13,Wunderground v.1.15,2013-02-10 22:40:00,
2013-02-10 17:45:00,24.1,4.8,30.47,WSW,239,0.0,4.0,43,0.00,,,0.13,Wunderground v.1.15,2013-02-10 22:45:00,
2013-02-10 17:50:00,23.6,4.8,30.47,WSW,239,0.0,4.0,44,0.00,,,0.13,Wunderground v.1.15,2013-02-10 22:50:00,
2013-02-10 17:55:00,23.3,5.5,30.48,WSW,239,0.0,4.0,46,0.00,,,0.13,Wunderground v.1.15,2013-02-10 22:55:00,
2013-02-10 18:00:00,22.9,5.2,30.48,WSW,239,0.0,4.0,46,0.00,,,0.13,Wunderground v.1.15,2013-02-10 23:00:00,
2013-02-10 18:05:00,22.4,4.7,30.48,WSW,239,0.0,4.0,46,0.00,,,0.13,Wunderground v.1.15,2013-02-10 23:05:00,
2013-02-10 18:10:00,22.1,5.4,30.49,WSW,239,0.0,4.0,48,0.00,,,0.13,Wunderground v.1.15,2013-02-10 23:10:00,
2013-02-10 18:15:00,21.8,5.1,30.49,WSW,239,0.0,4.0,48,0.00,,,0.13,Wunderground v.1.15,2013-02-10 23:15:00,
2013-02-10 18:20:00,21.1,4.9,30.49,WSW,239,0.0,4.0,49,0.00,,,0.13,Wunderground v.1.15,2013-02-10 23:20:00,
2013-02-10 18:25:00,20.8,4.6,30.50,WSW,239,0.0,4.0,49,0.00,,,0.13,Wunderground v.1.15,2013-02-10 23:25:00,
2013-02-10 18:30:00,20.5,4.8,30.50,WSW,239,0.0,4.0,50,0.00,,,0.13,Wunderground v.1.15,2013-02-10 23:30:00,
2013-02-10 18:35:00,20.2,4.9,30.50,WSW,239,0.0,4.0,51,0.00,,,0.13,Wunderground v.1.15,2013-02-10 23:35:00,
2013-02-10 18:40:00,19.7,4.5,30.49,WSW,239,0.0,4.0,51,0.00,,,0.13,Wunderground v.1.15,2013-02-10 23:40:00,
2013-02-10 18:45:00,18.8,4.5,30.49,WSW,239,0.0,4.0,53,0.00,,,0.13,Wunderground v.1.15,2013-02-10 23:45:00,
2013-02-10 18:50:00,18.1,4.6,30.49,WSW,239,0.0,4.0,55,0.00,,,0.13,Wunderground v.1.15,2013-02-10 23:50:00,
2013-02-10 18:55:00,17.8,4.7,30.50,WSW,239,0.0,4.0,56,0.00,,,0.13,Wunderground v.1.15,2013-02-10 23:55:00,
2013-02-10 19:05:00,18.0,4.9,30.50,WSW,239,0.0,4.0,56,0.00,,,0.13,Wunderground v.1.15,2013-02-11 00:05:00,
2013-02-10 19:10:00,17.7,4.6,30.50,WSW,239,0.0,4.0,56,0.00,,,0.13,Wunderground v.1.15,2013-02-11 00:10:00,
2013-02-10 19:15:00,16.5,3.9,30.50,WSW,239,0.0,4.0,57,0.00,,,0.13,Wunderground v.1.15,2013-02-11 00:15:00,
2013-02-10 19:20:00,16.2,4.4,30.50,WSW,239,0.0,4.0,59,0.00,,,0.13,Wunderground v.1.15,2013-02-11 00:20:00,
2013-02-10 19:25:00,15.9,4.4,30.50,WSW,239,0.0,4.0,60,0.00,,,0.13,Wunderground v.1.15,2013-02-11 00:25:00,
2013-02-10 19:30:00,15.4,3.6,30.50,WSW,239,0.0,4.0,59,0.00,,,0.13,Wunderground v.1.15,2013-02-11 00:30:00,
2013-02-10 19:35:00,15.1,3.7,30.50,WSW,239,0.0,4.0,60,0.00,,,0.13,Wunderground v.1.15,2013-02-11 00:35:00,
2013-02-10 19:40:00,15.2,4.1,30.50,WSW,239,0.0,4.0,61,0.00,,,0.13,Wunderground v.1.15,2013-02-11 00:40:00,
2013-02-10 19:45:00,15.4,4.3,30.50,WSW,239,0.0,4.0,61,0.00,,,0.13,Wunderground v.1.15,2013-02-11 00:45:00,
2013-02-10 19:50:00,15.4,4.0,30.50,WSW,239,0.0,4.0,60,0.00,,,0.13,Wunderground v.1.15,2013-02-11 00:50:00,
2013-02-10 19:55:00,15.2,3.8,30.49,WSW,239,0.0,4.0,60,0.00,,,0.13,Wunderground v.1.15,2013-02-11 00:55:00,
2013-02-10 20:00:00,14.8,3.4,30.49,WSW,239,0.0,4.0,60,0.00,,,0.13,Wunderground v.1.15,2013-02-11 01:00:00,
2013-02-10 20:05:00,14.4,3.0,30.49,WSW,239,0.0,4.0,60,0.00,,,0.13,Wunderground v.1.15,2013-02-11 01:05:00,
2013-02-10 20:10:00,14.0,3.0,30.48,WSW,239,0.0,4.0,61,0.00,,,0.13,Wunderground v.1.15,2013-02-11 01:10:00,
2013-02-10 20:15:00,13.6,3.0,30.48,WSW,239,0.0,4.0,62,0.00,,,0.13,Wunderground v.1.15,2013-02-11 01:15:00,
2013-02-10 20:20:00,13.5,3.2,30.48,WSW,239,0.0,4.0,63,0.00,,,0.13,Wunderground v.1.15,2013-02-11 01:20:00,
2013-02-10 20:25:00,13.5,3.6,30.49,WSW,239,0.0,4.0,64,0.00,,,0.13,Wunderground v.1.15,2013-02-11 01:25:00,
2013-02-10 20:35:00,11.7,1.9,30.49,WSW,239,0.0,4.0,64,0.00,,,0.13,Wunderground v.1.15,2013-02-11 01:35:00,
2013-02-10 20:40:00,11.4,1.9,30.49,WSW,239,0.0,4.0,65,0.00,,,0.13,Wunderground v.1.15,2013-02-11 01:40:00,
2013-02-10 20:45:00,11.2,1.7,30.49,WSW,239,0.0,4.0,65,0.00,,,0.13,Wunderground v.1.15,2013-02-11 01:45:00,
2013-02-10 20:50:00,11.2,2.0,30.49,WSW,239,0.0,4.0,66,0.00,,,0.13,Wunderground v.1.15,2013-02-11 01:50:00,
2013-02-10 20:55:00,11.1,1.9,30.49,WSW,239,0.0,4.0,66,0.00,,,0.13,Wunderground v.1.15,2013-02-11 01:55:00,
2013-02-10 21:00:00,10.7,1.9,30.49,WSW,239,0.0,4.0,67,0.00,,,0.13,Wunderground v.1.15,2013-02-11 02:00:00,
2013-02-10 21:05:00,10.5,1.7,30.49,WSW,239,0.0,4.0,67,0.00,,,0.13,Wunderground v.1.15,2013-02-11 02:05:00,
2013-02-10 21:10:00,10.9,2.4,30.48,WSW,239,0.0,4.0,68,0.00,,,0.13,Wunderground v.1.15,2013-02-11 02:10:00,
2013-02-10 21:15:00,11.2,3.0,30.48,WSW,239,0.0,4.0,69,0.00,,,0.13,Wunderground v.1.15,2013-02-11 02:15:00,
2013-02-10 21:20:00,10.9,2.1,30.48,WSW,239,0.0,4.0,67,0.00,,,0.13,Wunderground v.1.15,2013-02-11 02:20:00,
2013-02-10 21:25:00,10.0,1.5,30.48,WSW,239,0.0,4.0,68,0.00,,,0.13,Wunderground v.1.15,2013-02-11 02:25:00,
2013-02-10 21:30:00,9.7,1.6,30.48,WSW,239,0.0,4.0,69,0.00,,,0.13,Wunderground v.1.15,2013-02-11 02:30:00,
2013-02-10 21:35:00,9.7,1.9,30.48,WSW,239,0.0,4.0,70,0.00,,,0.13,Wunderground v.1.15,2013-02-11 02:35:00,
2013-02-10 21:40:00,9.7,1.9,30.48,WSW,239,0.0,4.0,70,0.00,,,0.13,Wunderground v.1.15,2013-02-11 02:40:00,
2013-02-10 21:50:00,9.2,1.4,30.48,WSW,239,0.0,4.0,70,0.00,,,0.13,Wunderground v.1.15,2013-02-11 02:50:00,
2013-02-10 21:55:00,8.8,1.3,30.48,WSW,239,0.0,4.0,71,0.00,,,0.13,Wunderground v.1.15,2013-02-11 02:55:00,
2013-02-10 22:00:00,8.8,1.6,30.48,WSW,239,0.0,4.0,72,0.00,,,0.13,Wunderground v.1.15,2013-02-11 03:00:00,
2013-02-10 22:05:00,9.2,2.0,30.48,WSW,239,0.0,4.0,72,0.00,,,0.13,Wunderground v.1.15,2013-02-11 03:05:00,
2013-02-10 22:10:00,9.2,2.0,30.47,WSW,239,0.0,4.0,72,0.00,,,0.13,Wunderground v.1.15,2013-02-11 03:10:00,
2013-02-10 22:15:00,9.0,2.1,30.47,WSW,239,0.0,4.0,73,0.00,,,0.13,Wunderground v.1.15,2013-02-11 03:15:00,
2013-02-10 22:20:00,8.6,1.4,30.47,WSW,239,0.0,4.0,72,0.00,,,0.13,Wunderground v.1.15,2013-02-11 03:20:00,
2013-02-10 22:25:00,8.3,1.4,30.47,WSW,239,0.0,4.0,73,0.00,,,0.13,Wunderground v.1.15,2013-02-11 03:25:00,
2013-02-10 22:30:00,8.1,1.2,30.47,WSW,239,0.0,4.0,73,0.00,,,0.13,Wunderground v.1.15,2013-02-11 03:30:00,
2013-02-10 22:40:00,8.4,1.8,30.46,WSW,239,0.0,4.0,74,0.00,,,0.13,Wunderground v.1.15,2013-02-11 03:40:00,
2013-02-10 22:45:00,8.4,1.8,30.46,WSW,239,0.0,4.0,74,0.00,,,0.13,Wunderground v.1.15,2013-02-11 03:45:00,
2013-02-10 22:50:00,8.6,2.0,30.46,WSW,239,0.0,4.0,74,0.00,,,0.13,Wunderground v.1.15,2013-02-11 03:50:00,
2013-02-10 22:55:00,8.4,1.8,30.45,WSW,239,0.0,4.0,74,0.00,,,0.13,Wunderground v.1.15,2013-02-11 03:55:00,
2013-02-10 23:00:00,8.3,1.7,30.45,WSW,239,0.0,4.0,74,0.00,,,0.13,Wunderground v.1.15,2013-02-11 04:00:00,
2013-02-10 23:05:00,8.4,1.8,30.45,WSW,239,0.0,4.0,74,0.00,,,0.13,Wunderground v.1.15,2013-02-11 04:05:00,
2013-02-10 23:10:00,8.8,2.5,30.44,WSW,239,0.0,4.0,75,0.00,,,0.13,Wunderground v.1.15,2013-02-11 04:10:00,
2013-02-10 23:15:00,9.0,2.7,30.44,WSW,239,0.0,4.0,75,0.00,,,0.13,Wunderground v.1.15,2013-02-11 04:15:00,
2013-02-10 23:20:00,9.0,2.7,30.44,WSW,239,0.0,4.0,75,0.00,,,0.13,Wunderground v.1.15,2013-02-11 04:20:00,
2013-02-10 23:25:00,9.0,2.7,30.44,WSW,239,0.0,4.0,75,0.00,,,0.13,Wunderground v.1.15,2013-02-11 04:25:00,
2013-02-10 23:30:00,9.2,2.9,30.44,WSW,239,0.0,4.0,75,0.00,,,0.13,Wunderground v.1.15,2013-02-11 04:30:00,
2013-02-10 23:35:00,9.2,2.9,30.44,WSW,239,0.0,4.0,75,0.00,,,0.13,Wunderground v.1.15,2013-02-11 04:35:00,
2013-02-10 23:40:00,9.3,3.0,30.44,WSW,239,0.0,4.0,75,0.00,,,0.13,Wunderground v.1.15,2013-02-11 04:40:00,
2013-02-10 23:45:00,9.2,2.9,30.44,WSW,239,0.0,4.0,75,0.00,,,0.13,Wunderground v.1.15,2013-02-11 04:45:00,
2013-02-10 23:50:00,9.3,3.0,30.44,WSW,239,0.0,4.0,75,0.00,,,0.13,Wunderground v.1.15,2013-02-11 04:50:00,
2013-02-10 23:55:00,9.3,3.0,30.43,WSW,239,0.0,4.0,75,0.00,,,0.00,Wunderground v.1.15,2013-02-11 04:55:00,